Weather History for Chicago Executive, IL

Change the Weather History Date:

Sunday, March 10, 2013

  Actual Average Record
Temperature  
Mean Temperature 45 °F 36 °F  
Max Temperature 50 °F 44 °F 62 °F (2009)
Min Temperature 40 °F 27 °F 3 °F (2003)
Degree Days  
Heating Degree Days 20 29  
Month to date heating degree days 347 309  
Since 1 July heating degree days 4854 5047  
Cooling Degree Days 0 0  
Month to date cooling degree days 0 0  
Year to date cooling degree days 0 0  
Moisture  
Dew Point 42 °F    
Average Humidity 95    
Maximum Humidity 100    
Minimum Humidity 63    
Precipitation  
Precipitation 0.49 in 0.07 in 0.49 in (2013)
Month to date precipitation 0.53 0.63  
Year to date precipitation 5.49 3.21  
Sea Level Pressure  
Sea Level Pressure 29.74 in    
Wind  
Wind Speed 8 mph (SSE)    
Max Wind Speed 18 mph    
Max Gust Speed 25 mph    
Visibility 3 miles    
Events Fog , Rain    
T = Trace of Precipitation, MM = Missing Value Source: NWS Daily Summary

Daily Weather History Graph

Daily Weather History Graph

Search for Another Location

Airport:

Trip Planner

Search our weather history database for the weather conditions in past years. The results will help you decide how hot, cold, wet, or windy it might be!

Date:

Astronomy

Mar. 10, 2013 Rise Set
Actual Time 7:11 AM CDT 6:52 PM CDT
Civil Twilight 6:43 AM CDT 7:20 PM CDT
Nautical Twilight 6:11 AM CDT 7:53 PM CDT
Astronomical Twilight 5:38 AM CDT 8:25 PM CDT
Moon 6:12 AM CDT (3/10) 6:00 PM CDT (3/10)
Length of Visible Light 12h 36m
Length of Day
11h 41m
Waning Crescent, 2% of the Moon is Illuminated
Mar 10
Waning Crescent
Mar 11
New
Mar 19
First Quarter
Mar 27
Full
Apr 2
Last Quarter

Hourly Weather History & Observations

Time (CDT) Temp. Windchill Dew Point Humidity Pressure Visibility Wind Dir Wind Speed Gust Speed Precip Events Conditions
12:52 AM 44.1 °F 39.0 °F 32.0 °F 63% 29.86 in 10.0 mi South 9.2 mph - N/A   Overcast
1:52 AM 43.0 °F 36.0 °F 37.9 °F 82% 29.86 in 7.0 mi SSW 13.8 mph - 0.01 in Rain Light Rain
3:52 AM 41.0 °F 35.2 °F 39.0 °F 93% 29.84 in 6.0 mi South 9.2 mph - 0.03 in Rain Light Rain
4:52 AM 41.0 °F 34.7 °F 39.9 °F 96% 29.82 in 4.0 mi South 10.4 mph - 0.03 in Rain Light Rain
5:03 AM 41.0 °F 34.7 °F 39.2 °F 93% 29.80 in 4.0 mi South 10.4 mph - 0.00 in Rain Light Rain
5:18 AM 41.0 °F 35.2 °F 39.2 °F 93% 29.80 in 3.0 mi South 9.2 mph - 0.01 in Rain Light Rain
5:30 AM 41.0 °F 34.7 °F 39.2 °F 93% 29.81 in 2.5 mi South 10.4 mph - 0.03 in Rain Light Rain
5:34 AM 41.0 °F 35.8 °F 39.2 °F 93% 29.81 in 3.0 mi South 8.1 mph - 0.03 in Rain Light Rain
5:43 AM 41.0 °F 33.9 °F 39.2 °F 93% 29.82 in 2.5 mi South 12.7 mph - 0.05 in Rain Rain
5:52 AM 41.0 °F 32.8 °F 41.0 °F 100% 29.84 in 3.0 mi South 16.1 mph - 0.06 in Rain Light Rain
6:01 AM 42.8 °F 36.6 °F 41.0 °F 93% 29.82 in 3.0 mi South 11.5 mph - 0.01 in Rain Light Rain
6:09 AM 41.0 °F 34.3 °F 41.0 °F 100% 29.83 in 3.0 mi South 11.5 mph - 0.03 in Rain Light Rain
6:20 AM 42.8 °F 36.6 °F 41.0 °F 93% 29.82 in 3.0 mi South 11.5 mph - 0.04 in Rain Light Rain
6:52 AM 42.1 °F 34.9 °F 41.0 °F 96% 29.82 in 4.0 mi South 13.8 mph - 0.05 in Rain Light Rain
7:52 AM 41.0 °F 34.7 °F 41.0 °F 100% 29.82 in 3.0 mi South 10.4 mph - 0.03 in Rain Light Rain
8:01 AM 41.0 °F 35.2 °F 39.2 °F 93% 29.80 in 2.5 mi South 9.2 mph - 0.01 in Rain Light Rain
8:08 AM 41.0 °F 35.2 °F 39.2 °F 93% 29.79 in 3.0 mi SE 9.2 mph - 0.01 in Rain Light Rain
8:16 AM 41.0 °F 34.3 °F 39.2 °F 93% 29.79 in 2.5 mi SSE 11.5 mph - 0.01 in Rain Light Rain
8:36 AM 41.0 °F 38.0 °F 39.2 °F 93% 29.78 in 3.0 mi SSE 4.6 mph - 0.01 in   Overcast
8:52 AM 39.9 °F 35.8 °F 39.0 °F 97% 29.81 in 3.0 mi South 5.8 mph - 0.01 in   Overcast
9:03 AM 41.0 °F 36.4 °F 39.2 °F 93% 29.80 in 3.0 mi South 6.9 mph - N/A   Overcast
9:52 AM 41.0 °F 38.0 °F 39.9 °F 96% 29.82 in 3.0 mi SSE 4.6 mph - N/A   Overcast
10:06 AM 39.2 °F 33.0 °F 39.2 °F 100% 29.80 in 3.0 mi SSE 9.2 mph - N/A   Mostly Cloudy
10:52 AM 45.0 °F 40.6 °F 41.0 °F 86% 29.83 in 5.0 mi SSW 8.1 mph - N/A   Overcast
11:52 AM 45.0 °F - 43.0 °F 93% 29.80 in 3.0 mi Calm Calm - 0.01 in Rain Light Rain
12:11 PM 44.6 °F 42.2 °F 42.8 °F 93% 29.78 in 4.0 mi SE 4.6 mph - 0.00 in   Overcast
12:52 PM 43.0 °F 40.3 °F 42.1 °F 97% 29.82 in 3.0 mi SSE 4.6 mph - 0.00 in   Overcast
1:52 PM 44.1 °F - 43.0 °F 96% 29.78 in 4.0 mi Calm Calm - 0.00 in   Overcast
2:39 PM 44.6 °F - 42.8 °F 93% 29.74 in 1.8 mi Calm Calm - 0.01 in Rain Light Rain
2:52 PM 44.1 °F - 43.0 °F 96% 29.75 in 1.2 mi Calm Calm - 0.02 in Rain Light Rain
3:01 PM 44.6 °F 42.2 °F 42.8 °F 93% 29.72 in 1.0 mi NNE 4.6 mph - 0.00 in Rain Light Rain
3:08 PM 44.6 °F 43.1 °F 44.6 °F 100% 29.73 in 1.8 mi ENE 3.5 mph - 0.00 in   Overcast
3:27 PM 44.6 °F 41.4 °F 44.6 °F 100% 29.71 in 2.0 mi ENE 5.8 mph - 0.00 in Rain Light Rain
3:37 PM 46.4 °F - 44.6 °F 93% 29.72 in 2.5 mi Calm Calm - 0.00 in Rain Light Rain
3:44 PM 44.6 °F 43.1 °F 44.6 °F 100% 29.73 in 1.8 mi South 3.5 mph - 0.01 in Rain Light Rain
3:47 PM 42.8 °F 40.1 °F 42.8 °F 100% 29.74 in 0.5 mi SSE 4.6 mph - 0.01 in Fog , Rain Rain
3:52 PM 43.0 °F 41.3 °F 43.0 °F 100% 29.75 in 0.2 mi SE 3.5 mph - 0.03 in Rain Rain
3:55 PM 42.8 °F 41.1 °F 42.8 °F 100% 29.73 in 1.0 mi ESE 3.5 mph - 0.00 in Rain Rain
4:37 PM 44.6 °F 41.4 °F 42.8 °F 93% 29.72 in 1.2 mi ENE 5.8 mph - 0.05 in Rain Light Rain
4:48 PM 42.8 °F 38.6 °F 42.8 °F 100% 29.70 in 1.2 mi NE 6.9 mph - 0.07 in Rain Light Rain
4:52 PM 43.0 °F 39.5 °F 42.1 °F 97% 29.71 in 1.5 mi NE 5.8 mph - 0.07 in Rain Light Rain
5:10 PM 42.8 °F 41.1 °F 42.8 °F 100% 29.71 in 1.0 mi West 3.5 mph - 0.03 in Rain Rain
5:17 PM 42.8 °F 41.1 °F 42.8 °F 100% 29.70 in 0.5 mi NNE 3.5 mph - 0.07 in Fog , Rain Heavy Rain
5:34 PM 42.8 °F 41.1 °F 42.8 °F 100% 29.70 in 0.8 mi NE 3.5 mph - 0.09 in Rain Light Rain
5:52 PM 42.1 °F 40.2 °F 42.1 °F 100% 29.71 in 0.8 mi ENE 3.5 mph - 0.11 in Rain Light Rain
5:59 PM 42.8 °F 41.1 °F 42.8 °F 100% 29.69 in 0.8 mi NE 3.5 mph - 0.00 in Rain Light Rain
6:11 PM 42.8 °F 40.1 °F 41.0 °F 93% 29.68 in 0.8 mi ENE 4.6 mph - 0.02 in Rain Light Rain
6:41 PM 42.8 °F 38.6 °F 42.8 °F 100% 29.65 in 1.0 mi ENE 6.9 mph - 0.02 in   Overcast
6:46 PM 42.8 °F 38.6 °F 42.8 °F 100% 29.65 in 1.2 mi ENE 6.9 mph - 0.02 in   Overcast
6:52 PM 42.1 °F 38.4 °F 42.1 °F 100% 29.67 in 1.5 mi East 5.8 mph - 0.02 in   Overcast
6:56 PM 42.8 °F 39.3 °F 42.8 °F 100% 29.65 in 0.8 mi ENE 5.8 mph - N/A   Overcast
7:16 PM 42.8 °F 39.3 °F 42.8 °F 100% 29.65 in 0.8 mi ENE 5.8 mph - N/A   Overcast
7:25 PM 42.8 °F - 42.8 °F 100% 29.65 in 0.8 mi Calm Calm - N/A   Overcast
7:52 PM 43.0 °F 38.8 °F 41.0 °F 93% 29.65 in 0.8 mi East 6.9 mph - N/A   Overcast
7:59 PM 42.8 °F 38.6 °F 42.8 °F 100% 29.64 in 5.0 mi ESE 6.9 mph - N/A   Overcast
8:47 PM 44.6 °F 41.4 °F 42.8 °F 93% 29.64 in 6.0 mi South 5.8 mph - N/A   Overcast
8:52 PM 46.0 °F 41.9 °F 43.0 °F 89% 29.65 in 6.0 mi South 8.1 mph - N/A   Overcast
9:52 PM 48.9 °F - 46.0 °F 90% 29.66 in 9.0 mi South 11.5 mph - N/A   Overcast
10:00 PM 48.2 °F - 46.4 °F 93% 29.65 in 9.0 mi South 11.5 mph - N/A   Overcast
11:07 PM 48.2 °F - 46.4 °F 93% 29.65 in 6.0 mi SSW 12.7 mph - N/A   Overcast
11:34 PM 48.2 °F - 46.4 °F 93% 29.65 in 4.0 mi SSW 6.9 mph - N/A   Overcast
11:52 PM 46.9 °F - 46.9 °F 100% 29.66 in 3.0 mi SSW 8.1 mph - 0.01 in Rain Light Rain
12:00 AM 46.4 °F 42.4 °F 46.4 °F 100% 29.65 in 4.0 mi SSW 8.1 mph - 0.00 in Rain Light Rain
12:41 AM 46.4 °F 42.4 °F 46.4 °F 100% 29.63 in 7.0 mi South 8.1 mph - 0.00 in   Overcast
12:52 AM 46.9 °F - 46.0 °F 97% 29.65 in 8.0 mi South 9.2 mph - 0.00 in   Overcast